This is the latest recevied weather packets stored in our database for station/object G7GQA-4. If no packets are shown the sender has not sent any weather packets the latest 10 day(s).
| Time | Temp. | Humidity | Pressure | Rain* | Wind** | Luminosity | Snow |
|---|---|---|---|---|---|---|---|
| 1777490130 | 13.89° C | 41% | - | 0 mm | - | 9 W/m² | - |
| 1777489530 | 14.44° C | 40% | - | 0 mm | - | 15 W/m² | - |
| 1777488930 | 14.44° C | 38% | - | 0 mm | - | 23 W/m² | - |
| 1777488329 | 15° C | 37% | - | 0 mm | - | 31 W/m² | - |
| 1777487729 | 15° C | 37% | - | 0 mm | - | 37 W/m² | - |
| 1777487129 | 15.56° C | 35% | - | 0 mm | - | 42 W/m² | - |
| 1777486529 | 16.11° C | 34% | - | 0 mm | - | 46 W/m² | - |
| 1777485929 | 16.11° C | 31% | - | 0 mm | - | 50 W/m² | - |
| 1777485329 | 16.11° C | 30% | - | 0 mm | - | 54 W/m² | - |
| 1777484729 | 16.67° C | 29% | - | 0 mm | - | 60 W/m² | - |
| 1777484129 | 16.67° C | 29% | - | 0 mm | - | 66 W/m² | - |
| 1777483529 | 17.22° C | 30% | - | 0 mm | - | 72 W/m² | - |
| 1777482929 | 17.22° C | 29% | - | 0 mm | - | 94 W/m² | - |
| 1777482329 | 17.78° C | 28% | - | 0 mm | - | 197 W/m² | - |
| 1777481729 | 17.78° C | 28% | - | 0 mm | - | 266 W/m² | - |
| 1777481129 | 17.78° C | 28% | - | 0 mm | - | 288 W/m² | - |
| 1777480528 | 17.78° C | 28% | - | 0 mm | - | 295 W/m² | - |
| 1777479929 | 18.33° C | 28% | - | 0 mm | - | 164 W/m² | - |
| 1777479328 | 18.33° C | 28% | - | 0 mm | - | 87 W/m² | - |
| 1777478728 | 18.89° C | 28% | - | 0 mm | - | 85 W/m² | - |
| 1777478129 | 18.89° C | 27% | - | 0 mm | - | 187 W/m² | - |
| 1777477528 | 18.33° C | 27% | - | 0 mm | - | 462 W/m² | - |
| 1777476928 | 18.89° C | 28% | - | 0 mm | - | 487 W/m² | - |
| 1777476327 | 18.33° C | 27% | - | 0 mm | - | 505 W/m² | - |
| 1777475740 | 18.33° C | 29% | - | 0 mm | - | 538 W/m² | - |
* Rain latest hour (hover to see other rain measurements)
** Current wind speed in m/s (hover to see current wind gust speed)